Location: Mapua
(41.2500°S, 173.1000°E)
Time: 13:57:19
(UTC+12:00)

Hubble Space Telescope - Visible Passes

Search period start: 25 June 2017 00:00
Search period end: 05 July 2017 00:00
Orbit: 538 x 541 km, 28.5° (Epoch: 24 June)

Date Brightness Start Highest point End Pass type
(mag) Time Alt. Az. Time Alt. Az. Time Alt. Az.
26 Jun 3.3 19:23:18 10° NNW 19:24:34 12° N 19:24:34 12° N visible
27 Jun 3.2 19:12:47 10° NNW 19:14:43 13° N 19:15:05 13° NNE visible
28 Jun 3.1 19:02:24 10° NNW 19:04:31 14° N 19:05:37 12° NNE visible
29 Jun 3.2 18:52:06 10° NNW 18:54:18 14° N 18:56:11 11° NNE visible
30 Jun 3.3 18:41:53 10° NNW 18:44:06 14° N 18:46:18 10° NNE visible
01 Jul 3.3 18:31:44 10° NW 18:33:52 14° N 18:36:02 10° NNE visible
02 Jul 3.4 18:21:40 10° NW 18:23:40 13° N 18:25:40 10° NNE visible
03 Jul 3.5 18:11:42 10° NNW 18:13:27 12° N 18:15:13 10° NNE visible
04 Jul 3.6 18:01:54 10° NNW 18:03:14 11° N 18:04:34 10° N visible
